Latest Weather Observations for Braidwood

IDN60801

Issued at 3:03 pm EDT Monday 8 February 2016 (issued every 30 minutes, with the page automatically refreshed every 10 minutes)

About weather observations | Map of weather stations | Latest weather observations for NSW | Other Formats
Station Details ID: 069132 Name: BRAIDWOOD RACECOURSE AWS Lat: -35.43 Lon: 149.78 Height: 665.2 m
Data from the previous 72 hours. | See also: Recent months at Braidwood
Date/Time
EDT
Temp
°C
App
Temp
°C
Dew
Point
Rel
Hum
%
Delta-T
°C
Wind Press
QNH
hPa
Press
MSL
hPa
Rain
since 9 am
mm
Dir
 
Spd
km/h
Gust
km/h
Spd
kts
Gust
kts
08/03:00pm 25.7 23.3 11.5 41 8.3 SE 15 22 8 12 1020.7 1018.0 0.0
08/02:30pm 25.7 24.4 12.5 44 7.8 SSE 11 17 6 9 1020.9 1018.2 0.0
08/02:00pm 25.6 24.5 12.1 43 8.0 SSE 9 20 5 11 1021.0 1018.3 0.0
08/01:30pm 25.1 22.8 10.6 40 8.3 SSE 13 22 7 12 1021.1 1018.4 0.0
08/01:00pm 24.8 22.4 9.9 39 8.4 S 13 17 7 9 1021.3 1018.6 0.0
08/12:30pm 24.2 21.8 10.1 41 8.0 S 13 19 7 10 1021.5 1018.9 0.0
08/12:00pm 23.8 20.7 9.0 39 8.2 S 15 20 8 11 1021.7 1019.1 0.0
08/11:30am 23.9 21.3 10.6 43 7.6 S 15 22 8 12 1021.8 1019.2 0.0
08/11:00am 23.5 21.7 12.2 49 6.6 SE 13 19 7 10 1021.8 1019.2 0.0
08/10:30am 22.1 22.7 14.2 61 4.8 SSE 4 11 2 6 1021.8 1019.2 0.0
08/10:00am 19.9 21.3 14.3 70 3.3 CALM 0 0 0 0 1021.9 1019.3 0.0
08/09:30am 17.9 19.1 13.8 77 2.4 CALM 0 0 0 0 1021.8 1019.2 0.0
08/09:00am 15.6 16.6 13.1 85 1.4 CALM 0 0 0 0 1021.8 1019.2 0.2
08/08:30am 14.3 15.3 13.2 93 0.6 CALM 0 0 0 0 1021.7 1019.1 0.2
08/08:00am 12.1 12.6 11.6 97 0.3 CALM 0 0 0 0 1021.5 1018.9 0.2
08/07:30am 10.5 10.5 9.9 96 0.3 CALM 0 0 0 0 1021.3 1018.6 0.2
08/07:00am 9.4 9.1 8.8 96 0.3 CALM 0 0 0 0 1021.1 1018.4 0.2
08/06:30am 9.1 8.7 8.3 95 0.4 CALM 0 0 0 0 1021.0 1018.3 0.2
08/06:00am 9.9 9.8 9.3 96 0.3 CALM 0 0 0 0 1020.9 1018.2 0.2
08/05:30am 10.1 10.0 9.3 95 0.4 CALM 0 0 0 0 1020.7 1018.0 0.2
08/05:00am 11.4 11.7 10.8 96 0.3 CALM 0 0 0 0 1020.7 1018.0 0.2
08/04:30am 11.9 12.3 11.3 96 0.3 CALM 0 0 0 0 1020.7 1018.0 0.2
08/04:00am 12.2 12.7 11.6 96 0.3 CALM 0 0 0 0 1020.6 1017.9 0.0
08/03:30am 12.7 13.4 12.1 96 0.3 CALM 0 0 0 0 1020.6 1017.9 0.0
08/03:00am 12.1 12.6 11.5 96 0.3 CALM 0 0 0 0 1020.8 1018.1 0.0
08/02:30am 11.8 12.2 11.2 96 0.3 CALM 0 0 0 0 1020.9 1018.2 0.0
08/02:00am 12.4 13.0 11.8 96 0.3 CALM 0 0 0 0 1021.2 1018.5 0.0
08/01:30am 12.2 12.6 11.4 95 0.4 CALM 0 0 0 0 1021.3 1018.6 0.0
08/01:00am 12.7 13.3 11.9 95 0.4 CALM 0 0 0 0 1021.6 1019.0 0.0
08/12:30am 12.8 13.4 12.0 95 0.4 CALM 0 0 0 0 1021.5 1018.9 0.0
08/12:00am 12.9 13.6 12.1 95 0.4 CALM 0 0 0 0 1021.4 1018.7 0.0
 
Date/Time
EDT
Temp
°C
App
Temp
°C
Dew
Point
Rel
Hum
%
Delta-T
°C
Wind Press
QNH
hPa
Press
MSL
hPa
Rain
since 9 am
mm
Dir
 
Spd
km/h
Gust
km/h
Spd
kts
Gust
kts
07/11:30pm 13.6 14.4 12.7 94 0.5 CALM 0 0 0 0 1021.3 1018.6 0.0
07/11:00pm 14.4 15.5 13.6 95 0.5 CALM 0 0 0 0 1021.2 1018.5 0.0
07/10:30pm 14.7 15.8 13.4 92 0.7 CALM 0 0 0 0 1021.2 1018.5 0.0
07/10:00pm 15.2 15.6 13.7 91 0.9 SSE 4 4 2 2 1021.1 1018.4 0.0
07/09:30pm 15.4 15.8 13.6 89 1.0 SE 4 6 2 3 1020.8 1018.1 0.0
07/09:00pm 16.8 17.7 15.0 89 1.1 S 4 6 2 3 1020.6 1017.9 0.0
07/08:30pm 17.6 17.1 15.0 85 1.6 ESE 11 15 6 8 1020.0 1017.3 0.0
07/08:00pm 19.1 19.5 15.4 79 2.2 SE 7 13 4 7 1019.7 1017.0 0.0
07/07:30pm 20.5 20.1 15.1 71 3.3 SE 11 15 6 8 1019.4 1016.7 0.0
07/07:00pm 21.7 20.6 15.3 67 3.9 ESE 15 19 8 10 1018.7 1016.0 0.0
07/06:30pm 22.3 20.5 15.4 65 4.2 ESE 19 28 10 15 1018.5 1015.8 0.0
07/06:00pm 23.3 22.1 16.1 64 4.5 ESE 17 22 9 12 1018.4 1015.7 0.0
07/05:30pm 23.9 22.5 14.6 56 5.7 ESE 15 22 8 12 1018.2 1015.5 0.0
07/05:00pm 24.2 22.6 14.9 56 5.7 ESE 17 22 9 12 1018.1 1015.4 0.0
07/04:30pm 24.8 23.9 13.7 50 6.7 SE 11 17 6 9 1018.0 1015.3 0.0
07/04:00pm 24.8 24.4 13.0 47 7.0 SE 7 13 4 7 1018.1 1015.4 0.0
07/03:30pm 24.4 23.5 12.7 48 6.9 ESE 9 15 5 8 1018.2 1015.5 0.0
07/03:00pm 24.5 23.4 10.0 40 8.2 ESE 6 11 3 6 1018.5 1015.8 0.0
07/02:30pm 23.8 23.4 11.2 45 7.3 E 4 9 2 5 1018.8 1016.2 0.0
07/02:00pm 23.4 23.8 11.1 46 7.1 CALM 0 7 0 4 1018.8 1016.2 0.0
07/01:30pm 23.3 23.8 12.9 52 6.2 E 2 6 1 3 1019.1 1016.4 0.0
07/01:00pm 23.1 23.2 13.8 55 5.6 NNE 6 13 3 7 1019.4 1016.7 0.0
07/12:30pm 22.1 21.7 12.9 56 5.4 NNE 7 17 4 9 1019.6 1016.9 0.0
07/12:00pm 22.0 22.1 14.4 62 4.6 N 7 15 4 8 1019.7 1017.0 0.0
07/11:30am 21.0 20.9 13.2 61 4.6 N 6 11 3 6 1020.1 1017.4 0.0
07/11:00am 20.3 20.2 13.3 64 4.1 N 6 11 3 6 1020.3 1017.7 0.0
07/10:30am 19.7 19.5 13.6 68 3.6 N 7 17 4 9 1020.6 1017.9 0.0
07/10:00am 18.7 18.6 13.3 71 3.1 N 6 13 3 7 1020.6 1017.9 0.0
07/09:30am 16.9 16.8 13.2 79 2.1 NNW 6 9 3 5 1020.7 1018.0 0.0
07/09:00am 14.2 15.0 12.6 90 0.9 CALM 0 0 0 0 1020.8 1018.1 0.0
07/08:30am 12.9 13.6 12.1 95 0.4 CALM 0 0 0 0 1020.7 1018.0 0.0
07/08:00am 11.4 11.7 10.9 97 0.3 CALM 0 0 0 0 1020.7 1018.0 0.0
07/07:30am 9.6 9.4 9.1 97 0.3 CALM 0 0 0 0 1020.4 1017.8 0.0
07/07:00am 8.0 7.4 7.4 96 0.3 CALM 0 0 0 0 1020.4 1017.8 0.0
07/06:30am 7.5 6.8 6.9 96 0.3 CALM 0 0 0 0 1020.0 1017.3 0.0
07/06:00am 7.8 7.2 7.2 96 0.3 CALM 0 0 0 0 1019.7 1017.0 0.0
07/05:30am 7.9 7.3 7.3 96 0.3 CALM 0 0 0 0 1019.5 1016.8 0.0
07/05:00am 8.0 7.4 7.4 96 0.3 CALM 0 0 0 0 1019.4 1016.7 0.0
07/04:30am 8.4 7.9 7.8 96 0.3 CALM 0 0 0 0 1019.4 1016.7 0.0
07/04:00am 8.9 8.5 8.3 96 0.3 CALM 0 0 0 0 1019.5 1016.8 0.0
07/03:30am 9.4 9.1 8.8 96 0.3 CALM 0 0 0 0 1019.7 1017.0 0.0
07/03:00am 10.2 10.1 9.6 96 0.3 CALM 0 0 0 0 1019.8 1017.1 0.0
07/02:30am 9.6 9.4 9.0 96 0.3 CALM 0 0 0 0 1020.0 1017.3 0.0
07/02:00am 9.9 9.8 9.3 96 0.3 CALM 0 0 0 0 1020.2 1017.6 0.0
07/01:30am 9.9 9.7 9.1 95 0.4 CALM 0 0 0 0 1020.3 1017.7 0.0
07/01:00am 10.1 10.0 9.3 95 0.4 CALM 0 0 0 0 1020.7 1018.0 0.0
07/12:30am 11.0 11.1 10.2 95 0.4 CALM 0 0 0 0 1021.0 1018.3 0.0
07/12:00am 10.8 10.8 9.9 94 0.5 CALM 0 0 0 0 1021.0 1018.3 0.0
 
Date/Time
EDT
Temp
°C
App
Temp
°C
Dew
Point
Rel
Hum
%
Delta-T
°C
Wind Press
QNH
hPa
Press
MSL
hPa
Rain
since 9 am
mm
Dir
 
Spd
km/h
Gust
km/h
Spd
kts
Gust
kts
06/11:30pm 11.7 12.0 10.9 95 0.4 CALM 0 0 0 0 1021.1 1018.4 0.0
06/11:00pm 11.7 11.9 10.6 93 0.6 CALM 0 0 0 0 1021.3 1018.6 0.0
06/10:30pm 12.1 12.3 10.7 91 0.8 CALM 0 0 0 0 1021.5 1018.9 0.0
06/10:00pm 12.9 13.3 11.3 90 0.9 CALM 0 0 0 0 1021.3 1018.6 0.0
06/09:30pm 13.9 14.7 12.5 91 0.8 CALM 0 0 0 0 1021.1 1018.4 0.0
06/09:00pm 13.8 13.3 12.0 89 1.0 ESE 6 7 3 4 1020.7 1018.0 0.0
06/08:30pm 14.3 13.6 12.0 86 1.3 SE 7 11 4 6 1020.4 1017.8 0.0
06/08:00pm 15.3 13.5 12.2 82 1.7 ESE 13 19 7 10 1020.2 1017.6 0.0
06/07:30pm 16.7 14.2 12.3 75 2.5 ESE 17 22 9 12 1019.7 1017.0 0.0
06/07:00pm 17.9 15.2 12.8 72 2.9 ESE 19 22 10 12 1019.3 1016.6 0.0
06/06:30pm 18.7 16.2 12.2 66 3.7 ESE 17 22 9 12 1019.0 1016.3 0.0
06/06:00pm 19.1 16.7 12.8 67 3.6 ESE 17 22 9 12 1018.8 1016.2 0.0
06/05:30pm 19.4 17.5 14.2 72 3.1 ESE 17 24 9 13 1018.8 1016.2 0.0
06/05:00pm 19.1 17.5 13.9 72 3.1 ESE 15 20 8 11 1019.0 1016.3 0.0
06/04:30pm 20.3 19.0 13.7 66 3.9 ESE 13 19 7 10 1019.2 1016.5 0.0
06/04:00pm 19.6 17.7 13.1 66 3.8 ESE 15 24 8 13 1019.3 1016.6 0.0
06/03:30pm 21.2 19.7 14.1 64 4.3 E 15 26 8 14 1019.4 1016.7 0.0
06/03:00pm 20.0 17.8 12.0 60 4.6 ESE 15 20 8 11 1019.7 1017.0 0.0
06/02:30pm 19.9 17.8 12.4 62 4.3 ESE 15 22 8 12 1019.8 1017.1 0.0
06/02:00pm 19.2 17.3 11.7 62 4.3 ESE 13 19 7 10 1020.2 1017.6 0.0
06/01:30pm 19.7 18.4 12.5 63 4.2 ESE 11 17 6 9 1020.4 1017.8 0.0
06/01:00pm 18.5 16.9 11.6 64 3.9 ESE 11 20 6 11 1020.9 1018.2 0.0
06/12:30pm 18.6 16.6 11.4 63 4.1 ESE 13 20 7 11 1021.1 1018.4 0.0
06/12:00pm 18.8 17.6 12.8 68 3.5 SE 11 17 6 9 1021.3 1018.6 0.0
06/11:30am 18.2 16.5 12.6 70 3.2 SE 13 17 7 9 1021.5 1018.9 0.0
06/11:00am 17.7 16.4 13.8 78 2.3 SE 13 20 7 11 1021.7 1019.1 0.0
06/10:30am 17.0 15.4 12.7 76 2.5 SE 13 19 7 10 1021.8 1019.2 0.0
06/10:00am 16.3 14.0 11.9 75 2.5 ESE 15 22 8 12 1021.8 1019.2 0.0
06/09:30am 16.1 14.9 12.8 81 1.9 ESE 11 17 6 9 1021.8 1019.2 0.0
06/09:00am 15.8 14.3 12.0 78 2.1 ESE 11 15 6 8 1021.7 1019.1 0.8
06/08:30am 16.1 14.3 12.1 77 2.3 SE 13 19 7 10 1021.6 1019.0 0.8
06/08:00am 15.5 14.3 11.5 77 2.2 SSE 9 13 5 7 1021.4 1018.7 0.8
06/07:30am 14.6 13.9 12.1 85 1.4 SE 7 9 4 5 1021.1 1018.4 0.8
06/07:00am 14.1 13.0 12.1 88 1.1 SE 9 17 5 9 1020.9 1018.2 0.8
06/06:30am 13.9 13.5 12.5 91 0.8 SSE 6 9 3 5 1020.6 1017.9 0.8
06/06:00am 13.9 13.5 12.5 91 0.8 SSE 6 13 3 7 1020.3 1017.7 0.8
06/05:30am 13.7 13.1 12.3 91 0.8 SSE 7 9 4 5 1020.3 1017.7 0.8
06/05:00am 13.9 13.0 12.5 91 0.8 SE 9 13 5 7 1020.3 1017.7 0.8
06/04:30am 14.2 13.7 12.6 90 0.9 SE 7 13 4 7 1020.3 1017.7 0.6
06/04:00am 14.3 13.1 12.9 91 0.8 SE 11 17 6 9 1020.3 1017.7 0.6
06/03:30am 14.3 13.6 13.2 93 0.6 SE 9 19 5 10 1020.4 1017.8 0.6
06/03:00am 14.2 14.0 12.9 92 0.7 S 6 7 3 4 1020.6 1017.9 0.4
06/02:30am 14.3 14.0 12.7 90 0.9 S 6 9 3 5 1020.9 1018.2 0.4
06/02:00am 14.4 13.2 12.8 90 0.9 SSE 11 17 6 9 1021.0 1018.3 0.4
06/01:30am 14.2 13.4 12.9 92 0.7 SSE 9 17 5 9 1021.2 1018.5 0.4
06/01:00am 14.2 13.8 12.9 92 0.7 SSE 7 13 4 7 1021.4 1018.7 0.4
06/12:30am 13.9 13.4 12.5 91 0.8 SSE 7 11 4 6 1021.6 1019.0 0.4
06/12:00am 14.2 13.5 13.2 94 0.6 SSE 9 13 5 7 1021.9 1019.3 0.4
 
Date/Time
EDT
Temp
°C
App
Temp
°C
Dew
Point
Rel
Hum
%
Delta-T
°C
Wind Press
QNH
hPa
Press
MSL
hPa
Rain
since 9 am
mm
Dir
 
Spd
km/h
Gust
km/h
Spd
kts
Gust
kts
05/11:30pm 14.3 13.1 12.9 91 0.8 SSE 11 17 6 9 1022.0 1019.4 0.4
05/11:00pm 14.3 13.5 12.9 91 0.8 SSE 9 11 5 6 1022.3 1019.6 0.4
05/10:30pm 14.3 13.5 12.9 91 0.8 SSE 9 13 5 7 1022.4 1019.7 0.4
05/10:00pm 14.2 12.6 12.9 92 0.7 SSE 13 17 7 9 1022.3 1019.6 0.4
05/09:30pm 14.4 13.4 13.4 94 0.6 SSE 11 19 6 10 1022.3 1019.6 0.4
05/09:00pm 14.2 13.5 13.1 93 0.6 SE 9 15 5 8 1021.9 1019.3 0.4
05/08:30pm 14.1 11.7 12.8 92 0.7 ESE 17 24 9 13 1021.7 1019.1 0.2
05/08:00pm 14.6 13.9 13.3 92 0.7 SE 9 11 5 6 1021.6 1019.0 0.2
05/07:30pm 14.6 13.1 13.1 91 0.9 SE 13 19 7 10 1021.3 1018.6 0.2
05/07:00pm 14.7 12.9 13.2 91 0.9 SE 15 20 8 11 1021.3 1018.6 0.2
05/06:30pm 14.8 12.1 12.8 88 1.1 SE 19 32 10 17 1021.1 1018.4 0.2
05/06:00pm 15.5 12.6 14.0 91 0.9 SE 22 30 12 16 1021.0 1018.3 0.2
05/05:30pm 15.9 13.0 14.1 89 1.1 SE 22 32 12 17 1020.9 1018.2 0.2
05/05:00pm 17.2 13.7 12.3 73 2.8 ESE 22 35 12 19 1020.7 1018.0 0.2
05/04:30pm 18.3 14.7 13.2 72 3.0 SE 24 33 13 18 1020.8 1018.1 0.2
05/04:00pm 17.7 15.4 14.2 80 2.1 SE 19 32 10 17 1021.1 1018.4 0.2
05/03:30pm 16.3 13.7 15.0 92 0.8 ESE 22 30 12 16 1021.4 1018.7 0.2

Other Formats:

Comma delimited format used in spreadsheet applications
http://www.bom.gov.au/fwo/IDN60801/IDN60801.94927.axf

JavaScript Object Notation format (JSON) in row-major order
http://www.bom.gov.au/fwo/IDN60801/IDN60801.94927.json